EW8748 Weather Reports


time (UTC)temp
C
wind
direction
speed
KPH
gust
KPH
rain 1hr
cm
rain 24hr
cm
rain mn
cm
humidity
%
barometer
mb
20260508043511 12 359 1.6 3.2 0.00 0.00 0.00 92 1011.2
20260508042511 12 359 1.6 3.2 0.00 0.00 0.00 92 1011.0
20260508041511 12 359 1.6 4.8 0.00 0.00 0.00 92 1010.8
20260508040511 12 359 1.6 4.8 0.00 0.00 0.00 93 1010.9
20260508034020 12 359 3.2 4.8 0.00 0.00 0.00 93 1010.6
20260508031511 12 359 1.6 4.8 0.00 0.00 0.00 93 1010.5
20260508031018 12 359 1.6 4.8 0.00 0.00 0.00 93 1010.5
20260508030511 12 292 3.2 4.8 0.00 0.00 0.00 93 1010.5
20260508030011 13 298 1.6 4.8 0.00 0.00 0.00 93 1010.3
20260508025019 13 272 1.6 4.8 0.00 0.00 0.00 93 1010.3
20260508024511 13 272 1.6 3.2 0.00 0.00 0.00 93 1010.3
20260508023512 13 359 1.6 3.2 0.00 0.00 0.00 93 1010.1
20260508023019 13 271 1.6 3.2 0.00 0.00 0.00 93 1010.2
20260508022020 13 249 1.6 3.2 0.00 0.00 0.00 93 1010.3
20260508021512 13 359 1.6 3.2 0.00 0.00 0.00 92 1010.3
20260508020511 13 282 1.6 4.8 0.00 0.00 0.00 93 1010.4
20260508015511 13 137 1.6 3.2 0.00 0.00 0.00 93 1010.2
20260508013511 13 62 3.2 4.8 0.00 0.00 0.00 92 1010.1
20260508012511 13 103 1.6 4.8 0.00 0.00 0.00 92 1010.0
20260508012018 13 57 3.2 8.0 0.00 0.00 0.00 92 1010.0
20260508011018 13 89 4.8 4.8 0.00 0.00 0.00 92 1009.7
20260508010511 13 108 3.2 4.8 0.00 0.00 0.00 92 1009.8
20260508010011 13 75 4.8 12.9 0.00 0.00 0.00 92 1009.9
20260508005018 13 359 3.2 4.8 0.00 0.00 0.00 92 1010.2
20260508004511 13 102 3.2 9.7 0.00 0.00 0.00 92 1010.2
20260508004018 13 82 4.8 9.7 0.00 0.00 0.00 91 1010.2
20260508003511 13 75 3.2 4.8 0.00 0.00 0.00 91 1010.4
20260508001018 13 96 3.2 4.8 0.00 0.00 0.00 91 1010.8
20260508000511 13 88 1.6 4.8 0.00 0.00 0.00 91 1011.0
20260507235511 13 101 4.8 11.3 0.00 0.00 0.00 92 1011.1
20260507234018 13 69 3.2 9.7 0.00 0.00 0.00 92 1011.3
20260507233018 13 84 1.6 3.2 0.00 0.00 0.00 92 1011.9
20260507232018 13 87 1.6 4.8 0.00 0.00 0.00 92 1012.1
20260507231511 13 66 3.2 4.8 0.00 0.00 0.00 92 1012.1
20260507230011 13 55 3.2 4.8 0.00 0.00 0.00 92 1012.2
20260507225511 13 55 3.2 11.3 0.00 0.00 0.00 93 1012.2
20260507225018 13 78 6.4 11.3 0.00 0.00 0.00 93 1012.0
20260507224018 13 78 3.2 4.8 0.00 0.00 0.00 93 1011.7
20260507222018 13 53 3.2 4.8 0.00 0.00 0.00 93 1012.1
20260507221511 13 54 1.6 4.8 0.00 0.00 0.00 93 1012.4
20260507221017 13 89 3.2 4.8 0.00 0.00 0.00 93 1012.3
20260507220511 13 74 3.2 4.8 0.00 0.00 0.00 93 1012.2
20260507220013 13 96 8.0 11.3 0.00 0.00 0.00 93 1012.0
20260507214017 13 76 9.7 19.3 0.00 0.00 0.00 93 1011.0
20260507212511 13 91 9.7 16.1 0.00 0.00 0.00 93 1011.4
20260507211511 13 75 9.7 20.9 0.00 0.00 0.00 93 1011.3
20260507211018 13 58 11.3 19.3 0.00 0.00 0.00 93 1011.2
20260507210511 13 90 9.7 19.3 0.00 0.00 0.00 93 1011.3
20260507205511 13 80 8.0 19.3 0.00 0.00 0.00 93 1011.2
20260507205021 13 95 11.3 16.1 0.00 0.00 0.00 93 1011.0
20260507204515 13 76 9.7 19.3 0.00 0.00 0.00 93 1011.2
20260507204021 13 100 9.7 19.3 0.00 0.00 0.00 93 1011.0
20260507201514 13 92 9.7 19.3 0.00 0.00 0.00 94 1011.0
20260507200515 13 78 8.0 14.5 0.00 0.00 0.00 94 1011.2
20260507195515 13 88 8.0 19.3 0.00 0.00 0.00 94 1011.1
20260507194514 13 94 11.3 19.3 0.00 0.00 0.00 94 1011.3
20260507193514 13 100 9.7 19.3 0.00 0.00 0.00 94 1011.1
20260507193021 13 72 6.4 19.3 0.00 0.00 0.00 93 1011.1
20260507192515 13 102 11.3 20.9 0.00 0.00 0.00 93 1010.7
20260507191514 13 107 11.3 22.5 0.00 0.00 0.00 93 1010.6
20260507190514 13 141 9.7 19.3 0.00 0.00 0.00 93 1010.5
20260507185515 13 98 9.7 19.3 0.00 0.00 0.00 93 1010.5
20260507185021 13 77 14.5 22.5 0.00 0.00 0.00 93 1010.5
20260507182515 14 94 11.3 20.9 0.00 0.00 0.00 92 1010.3
20260507182022 14 107 9.7 19.3 0.00 0.00 0.00 92 1010.4
20260507181514 14 99 8.0 19.3 0.00 0.00 0.00 92 1010.4
20260507181023 14 64 9.7 16.1 0.00 0.00 0.00 92 1010.3
20260507180014 14 100 11.3 19.3 0.00 0.00 0.00 91 1010.2
20260507175022 14 130 11.3 22.5 0.00 0.00 0.00 91 1010.1
20260507173023 14 96 11.3 19.3 0.00 0.00 0.00 91 1010.1
20260507172515 14 87 9.7 20.9 0.00 0.00 0.00 91 1010.0
20260507172022 14 104 11.3 24.1 0.00 0.00 0.00 91 1009.9
20260507171515 14 56 14.5 24.1 0.00 0.00 0.00 90 1009.9
20260507165515 14 110 11.3 20.9 0.00 0.00 0.00 90 1010.1
20260507164022 14 81 14.5 25.7 0.00 0.00 0.00 89 1009.9
20260507163515 14 48 12.9 25.7 0.00 0.00 0.00 89 1009.9
20260507163022 14 104 14.5 24.1 0.00 0.00 0.00 89 1010.1
20260507162515 14 85 12.9 24.1 0.00 0.00 0.00 89 1010.3
20260507162022 14 81 16.1 25.7 0.00 0.00 0.00 89 1010.3
20260507161515 14 76 14.5 29.0 0.00 0.00 0.00 89 1010.1
20260507161022 14 67 12.9 27.4 0.00 0.00 0.00 89 1010.1
20260507160514 14 97 12.9 20.9 0.00 0.00 0.00 89 1010.0
20260507160014 14 102 16.1 25.7 0.00 0.00 0.00 88 1010.0
20260507155514 14 83 11.3 32.2 0.00 0.00 0.00 88 1010.2
20260507154514 14 50 16.1 37.0 0.00 0.00 0.00 88 1009.8
20260507154022 14 99 16.1 27.4 0.00 0.00 0.00 88 1009.6
20260507151022 15 103 19.3 32.2 0.00 0.00 0.00 87 1009.8
20260507145022 15 91 14.5 33.8 0.00 0.00 0.00 87 1009.7
20260507142022 14 122 22.5 41.8 0.00 0.00 0.00 87 1009.3
20260507141514 14 122 20.9 37.0 0.00 0.00 0.00 87 1009.3
20260507140514 14 91 22.5 37.0 0.00 0.00 0.00 87 1009.6
20260507132024 14 49 22.5 33.8 0.00 0.00 0.00 87 1009.7
20260507131514 14 116 19.3 41.8 0.00 0.00 0.00 87 1009.8
20260507130514 14 79 22.5 41.8 0.00 0.00 0.00 87 1010.1
20260507125514 14 90 25.7 40.2 0.00 0.00 0.00 87 1009.9
20260507125023 14 45 20.9 41.8 0.00 0.00 0.00 86 1009.9
20260507124515 14 110 17.7 38.6 0.00 0.00 0.00 86 1010.1
20260507124022 14 68 19.3 33.8 0.00 0.00 0.00 87 1010.1
20260507115022 14 185 29.0 45.1 0.00 0.00 0.00 85 1009.8
20260507114514 14 120 22.5 38.6 0.00 0.00 0.00 85 1009.9
20260507114022 14 122 24.1 48.3 0.00 0.00 0.00 84 1009.9
20260507113023 14 95 20.9 33.8 0.00 0.00 0.00 84 1009.8
20260507110515 14 101 22.5 40.2 0.00 0.00 0.00 83 1010.1
20260507110015 14 110 24.1 51.5 0.00 0.00 0.00 83 1010.2
20260507105022 15 67 20.9 38.6 0.00 0.00 0.00 83 1010.3
20260507104514 15 80 22.5 41.8 0.00 0.00 0.00 82 1010.1
20260507103514 15 24 24.1 38.6 0.00 0.00 0.00 81 1010.3
20260507103027 15 91 24.1 45.1 0.00 0.00 0.00 81 1010.4
20260507102514 15 70 24.1 40.2 0.00 0.00 0.00 82 1010.5
20260507100514 15 105 25.7 40.2 0.00 0.00 0.00 80 1010.6
20260507100014 15 52 27.4 45.1 0.00 0.00 0.00 80 1010.6
20260507095021 15 106 29.0 46.7 0.00 0.00 0.00 79 1010.7
20260507093023 15 55 22.5 41.8 0.00 0.00 0.00 79 1010.8
20260507091513 15 76 25.7 38.6 0.00 0.00 0.00 80 1011.1
20260507091021 15 102 22.5 45.1 0.00 0.00 0.00 80 1011.0
20260507085022 15 83 25.7 41.8 0.00 0.00 0.00 81 1010.9
20260507083513 15 45 20.9 33.8 0.00 0.00 0.00 82 1011.1
20260507082515 15 95 24.1 48.3 0.00 0.00 0.00 80 1010.9
20260507081513 15 90 25.7 41.8 0.00 0.00 0.00 81 1010.7
20260507081021 15 95 25.7 41.8 0.00 0.00 0.00 81 1010.6
20260507080016 15 97 25.7 41.8 0.00 0.00 0.00 82 1010.5
20260507075022 15 117 20.9 46.7 0.00 0.00 0.00 83 1010.4
20260507074021 15 96 22.5 40.2 0.00 0.00 0.00 83 1010.5
20260507065514 13 49 20.9 41.8 0.00 0.00 0.00 88 1011.1
20260507064513 13 71 24.1 45.1 0.00 0.00 0.00 90 1011.1
20260507063513 13 108 22.5 33.8 0.00 0.00 0.00 92 1011.2
20260507063021 13 73 20.9 41.8 0.00 0.00 0.00 92 1011.3
20260507062513 13 108 22.5 33.8 0.00 0.00 0.00 92 1011.2
20260507060515 13 108 19.3 32.2 0.00 0.00 0.00 93 1010.9
20260507060014 13 97 17.7 41.8 0.00 0.00 0.00 93 1011.0
20260507055514 13 98 22.5 45.1 0.00 0.00 0.00 93 1010.9
20260507055021 13 83 20.9 33.8 0.00 0.00 0.00 94 1011.0
20260507054513 13 88 20.9 38.6 0.00 0.00 0.00 93 1011.3
20260507053021 13 97 17.7 35.4 0.00 0.00 0.00 93 1011.5
20260507052515 12 124 19.3 40.2 0.00 0.00 0.00 93 1011.4
20260507052021 12 81 16.1 37.0 0.00 0.00 0.00 93 1011.4
20260507050513 12 88 20.9 35.4 0.00 0.00 0.00 94 1011.2
20260507050014 12 146 20.9 32.2 0.00 0.00 0.00 94 1011.3
20260507045021 12 29 19.3 35.4 0.00 0.00 0.00 94 1011.4
20260507044514 12 86 19.3 32.2 0.00 0.00 0.00 94 1011.6